THORAD AGENA D DEB

基本信息
目录编号:
5185
目录名称:
THORAD AGENA D DEB
国际标识:
1970-025KB
轨道中心:
EARTH
物体状态:
在轨
发射日期:
1970-04-08 UTC
轨道信息
数据来源: 国际轨道数据
星历时间: 2026-09-11T19:17:46+0800
半长轴: 7277.387km
偏心率: 0.0062221
轨道倾角: 99.639°
近地点辐角: 352.209°
升交点赤经: 332.530°
平近点角: 7.810°
近地点: 853.969km
远地点: 944.531km
周期: 102.973分钟
每日圈数: 13.984264
详细信息
发射场:
AFWTR
轨道高度:
LEO
数据来源:
AOE Integration Group
参考系:
TEME
时间系统:
UTC
历元类型:
SGP4
2D轨道图
3D轨道图
轨道高度分析图
轨道倾角分析图
轨道综合分析图
查看轨道综合分析图